Montreal Mirabel, Quebec

6:29 PM EDT on August 30, 2016 (GMT -0400)
Montreal International (Mirabel)

Weather History for CYMX - July, 2014

Change the Weather History Date:

Saturday, July 12, 2014

  Actual Average Record
Temperature  
Mean Temperature 66 °F -  
Max Temperature 78 °F 74 °F 87 °F (2005)
Min Temperature 53 °F 57 °F 51 °F (2002)
Growing Degree Days 16 (Base 50)    
Moisture  
Dew Point 57 °F    
Average Humidity 76    
Maximum Humidity 100    
Minimum Humidity 47    
Precipitation  
Precipitation 0.00 in - - ()
Sea Level Pressure  
Sea Level Pressure 30.13 in    
Wind  
Wind Speed 2 mph ()    
Max Wind Speed 10 mph    
Max Gust Speed -    
Averages and records for this station are not official NWS values.
T = Trace of Precipitation, MM = Missing Value Source: Averaged Metar Reports

Daily Weather History Graph

Daily Weather History Graph

Search for Another Location

Airport or City:

Trip Planner

Search our weather history database for the weather conditions in past years. The results will help you decide how hot, cold, wet, or windy it might be!

Date:

Astronomy

Jul. 12, 2014 Rise Set
Actual Time 5:18 AM EDT 8:44 PM EDT
Civil Twilight 4:41 AM EDT 9:21 PM EDT
Nautical Twilight 3:52 AM EDT 10:09 PM EDT
Astronomical Twilight 2:50 AM EDT 11:11 PM EDT
Moon 8:38 PM EDT (7/12) 5:39 AM EDT (7/12)
Length of Visible Light 16h 39m
Length of Day
15h 25m
Full, 100% of the Moon is Illuminated
Jul 12
Full
Jul 18
Last Quarter
Jul 26
New
Aug 3
First Quarter
Aug 10
Full

Hourly Weather History & Observations

Time (EDT) Temp. Dew Point Humidity Pressure Visibility Wind Dir Wind Speed Gust Speed Precip Events Conditions
12:00 AM 59.0 °F 57.2 °F 94% 30.20 in 25.0 mi WNW 2.3 mph - N/A   Partly Cloudy
2:00 AM 57.2 °F 55.4 °F 94% 30.19 in 25.0 mi Calm Calm - N/A   Partly Cloudy
3:00 AM 55.4 °F 55.4 °F 100% 30.18 in 25.0 mi Variable 2.3 mph - N/A   Scattered Clouds
4:00 AM 53.6 °F 53.6 °F 100% 30.17 in 25.0 mi Calm Calm - N/A   Mostly Cloudy
5:00 AM 53.6 °F 53.6 °F 100% 30.17 in 25.0 mi Calm Calm - N/A   Mostly Cloudy
6:00 AM 53.6 °F 53.6 °F 100% 30.18 in 25.0 mi Calm Calm - N/A   Mostly Cloudy
7:00 AM 57.2 °F 57.2 °F 100% 30.18 in 25.0 mi Variable 2.3 mph - N/A   Mostly Cloudy
8:00 AM 62.6 °F 59.0 °F 88% 30.19 in 45.0 mi Calm Calm - N/A   Mostly Cloudy
9:00 AM 66.2 °F 57.2 °F 73% 30.19 in 45.0 mi SW 5.8 mph - N/A   Mostly Cloudy
10:00 AM 69.8 °F 60.8 °F 73% 30.17 in 45.0 mi WSW 4.6 mph - N/A   Mostly Cloudy
11:00 AM 71.6 °F 59.0 °F 64% 30.16 in 45.0 mi SW 4.6 mph - N/A   Mostly Cloudy
12:00 PM 75.2 °F 59.0 °F 57% 30.16 in 45.0 mi SSW 8.1 mph - N/A   Mostly Cloudy
2:00 PM 77.0 °F 59.0 °F 54% 30.12 in 45.0 mi South 10.4 mph - N/A   Mostly Cloudy
3:00 PM 78.8 °F 57.2 °F 47% 30.11 in 45.0 mi SW 6.9 mph - N/A   Mostly Cloudy
4:00 PM 78.8 °F 57.2 °F 47% 30.09 in 45.0 mi SSW 6.9 mph - N/A   Scattered Clouds
5:00 PM 77.0 °F 55.4 °F 47% 30.08 in 45.0 mi SW 6.9 mph - N/A   Partly Cloudy
6:00 PM 78.8 °F 57.2 °F 47% 30.08 in 45.0 mi SW 4.6 mph - N/A   Partly Cloudy
8:00 PM 71.6 °F 62.6 °F 73% 30.05 in 45.0 mi South 2.3 mph - N/A   Overcast
9:00 PM 66.2 °F 60.8 °F 83% 30.05 in 25.0 mi Calm Calm - N/A   Mostly Cloudy
10:00 PM 64.4 °F 59.0 °F 83% 30.04 in 25.0 mi SSE 2.3 mph - N/A   Mostly Cloudy
11:00 PM 62.6 °F 57.2 °F 82% 30.02 in 25.0 mi Calm Calm - N/A   Mostly Cloudy